Flag for Norway Weather past 2 weeks in Tønsberg, Norway

Now
55 °F

Passing clouds.


Feels Like: 54 °F
Forecast: 49 / 64 °F
Wind: 6 mph from South

Location: Oseberg

Current Time: Aug 2, 2015 at 9:19:12 PM

Latest Report: Aug 2, 2015 at 8:50 PM


Visibility: N/A

Pressure: 30.07 "Hg

Humidity: 77%

Dew point: 48 °F

Location of TønsbergLocation

Historic Weather in Tønsberg — Graph

°F

Tønsberg temperature yesterday

Maximum temperature yesterday: 55 °F (at 12:50 PM)
Minimum temperature yesterday: 52 °F (at 8:50 AM)
Average temperature yesterday: 54 °F

Past Weeks' High & Low Weather Summary

 TemperatureHumidityPressure
High61 °F (Jul 25, 12:50 PM)100% (Jul 18, 10:50 PM)30.07 "Hg (Jul 18, 10:50 PM)
Low48 °F (Jul 31, 4:50 AM)59% (Jul 20, 4:50 PM)29.42 "Hg (Jul 21, 12:20 PM)
Average54 °F83%29.70 "Hg
* Reported Jul 18 7:50 PM — Aug 2 7:50 PM, Tønsberg, Weather by CustomWeather, © 2015

Note: Actual official high and low records may vary slightly from our data, if they occured in-between our weather recording intervals... More about our weather records

Advertising

Tønsberg weather history for previous 24 hours

 ConditionsComfort  
Time TempWeatherWind HumidityBarometerVisibility
7:50 PM
Sun, Aug 2
55 °FPassing clouds.6 mph77%30.07 "HgN/A
6:50 PM55 °FPassing clouds.5 mph77%30.04 "HgN/A
5:50 PM57 °FScattered clouds.6 mph72%30.04 "HgN/A
5:20 PM57 °FPassing clouds.5 mph72%30.04 "HgN/A
4:50 PM55 °FPassing clouds.6 mph77%30.04 "HgN/A
4:20 PM57 °FPassing clouds.6 mph72%30.04 "HgN/A
3:50 PM55 °FPassing clouds.8 mph72%30.04 "HgN/A
2:50 PM57 °FPassing clouds.8 mph67%30.01 "HgN/A
2:20 PM55 °FPassing clouds.8 mph72%30.01 "HgN/A
1:50 PM55 °FPassing clouds.9 mph72%30.01 "HgN/A
1:20 PM57 °FPassing clouds.10 mph67%29.98 "HgN/A
12:20 PM55 °FPassing clouds.10 mph72%29.95 "HgN/A
11:50 AM55 °FPassing clouds.10 mph67%29.95 "HgN/A
10:50 AM55 °FPassing clouds.8 mph82%29.92 "HgN/A
10:20 AM54 °FPassing clouds.10 mph82%29.92 "HgN/A
9:50 AM54 °FScattered clouds.8 mph82%29.89 "HgN/A
9:20 AM52 °FScattered showers. Scattered clouds.6 mph88%29.89 "HgN/A
8:50 AM52 °FSprinkles. Broken clouds.7 mph88%29.86 "HgN/A
8:20 AM52 °FSprinkles. Scattered clouds.9 mph88%29.86 "HgN/A
7:50 AM54 °FSprinkles. Scattered clouds.12 mph82%29.86 "HgN/A
7:20 AM52 °FScattered showers. Scattered clouds.12 mph88%29.86 "HgN/A
6:50 AM52 °FScattered showers. Broken clouds.13 mph88%29.86 "HgN/A
6:20 AM52 °FScattered showers. Scattered clouds.13 mph88%29.86 "HgN/A
5:50 AM52 °FPartly cloudy.10 mph88%29.83 "HgN/A
4:50 AM52 °FPassing clouds.17 mph88%29.83 "HgN/A
3:50 AM54 °FPassing clouds.9 mph82%29.83 "HgN/A
2:50 AM54 °FPassing clouds.6 mph67%29.83 "HgN/A
12:50 AM54 °FPassing clouds.16 mph82%29.83 "HgN/A
11:50 PM
Sat, Aug 1
54 °FPassing clouds.17 mph82%29.83 "HgN/A
10:50 PM54 °FPassing clouds.20 mph88%29.83 "HgN/A
9:50 PM54 °FScattered clouds.20 mph88%29.80 "HgN/A
Weather by CustomWeather, © 2015

See weather overviewHow to use our weather pages